Retour au catalogue

ONEWEB-0664

ActifCommunicationsPO
NORAD 55824·PAYLOAD·🇬🇧 United Kingdom

Lancé Mar 9, 2023 depuis Cape Canaveral Space Force Station

Loading…

Prochains Passages (prochaines 24 heures)

TLE

FraisSource: CelesTrak SupGP

Époque: Sep 14, 2026, 19:38 UTC

1 55824C 23029AE  26257.81821019  .00001357  00000+0  33411-2 0  2578
2 55824  87.9135 256.5939 0002349  90.1241 303.0700 13.20773122    15

Suivez ONEWEB-0664 en temps réel avec AllMySat

Download on the App Store